Tracking 30922 objects as of 1-Jul-2025
HD Live streaming from Space Station
objects crossing your sky now

IRIDIUM 33 DEB

Track IRIDIUM 33 DEB now!
10-day predictions


NORAD ID: 34540
Int'l Code: 1997-051JH
Perigee: 649.7 km
Apogee: 676.3 km
Inclination: 86.3 °
Period: 97.8 minutes
Semi major axis: 7033 km
RCS: 0.029 m2 (small)
Launch date: September 14, 1997
Source: United States (US)
Launch site: TYURATAM MISSILE AND SPACE COMPLEX (TTMTR)

Note: This is SATELLITE DEBRIS
Your satellite tracking list
Your tracking list is empty




NASA's NSSDC Master Catalog

Two Line Element Set (TLE):
1 34540U 97051JH  25182.03241641  .00004656  00000-0  74230-3 0  9997
2 34540  86.3132  22.5930 0018903  28.3556 124.0962 14.71644168866356
Source of the keplerian elements: AFSPC